Tracking 30510 objects as of 22-May-2025
HD Live streaming from Space Station
objects crossing your sky now

QPS-SAR-5 TSUKUYOMI-I

Track QPS-SAR-5 TSUKUYOMI-I now!
10-day predictions


NORAD ID: 58578
Int'l Code: 2023-196A
Perigee: 524.7 km
Apogee: 549.8 km
Inclination: 42.0 °
Period: 95.2 minutes
Semi major axis: 6908 km
RCS: Unknown
Launch date: December 15, 2023
Source: Japan (JPN)
Launch site: Rocket Lab Launch Complex (RLLC)
Your satellite tracking list
Your tracking list is empty




NASA's NSSDC Master Catalog

Two Line Element Set (TLE):
1 58578U 23196A   25141.82988665  .00008147  00000-0  47561-3 0  9995
2 58578  42.0131  65.6830 0018125 195.0674 164.9618 15.12001590 78805
Source of the keplerian elements: AFSPC